EW0349 Weather Reports


Display with metric or nautical units.
time (UTC)temp
F
wind
direction
speed
MPH
gust
MPH
rain 1hr
in
rain 24hr
in
rain mn
in
humidity
%
barometer
mb
20260507063051 51 273 0.0 6.0 0.00 0.00 0.00 59 1021.2
20260507061545 51 278 0.0 4.0 0.00 0.00 0.00 58 1021.2
20260507060040 51 5 0.0 3.0 0.00 0.00 0.00 58 1021.3
20260507054541 51 312 0.0 6.0 0.00 0.00 0.00 60 1021.1
20260507053032 51 162 0.0 3.0 0.00 0.00 0.00 58 1021.2
20260507051527 51 83 0.0 2.0 0.00 0.00 0.00 59 1021.3
20260507050032 51 118 0.0 4.0 0.00 0.00 0.00 60 1021.2
20260507044523 52 211 0.0 3.0 0.00 0.00 0.00 61 1021.2
20260507043014 52 211 0.0 3.0 0.00 0.00 0.00 62 1021.0
20260507041523 53 271 1.0 6.0 0.00 0.00 0.00 64 1020.9
20260507040006 53 254 0.0 3.0 0.00 0.00 0.00 65 1020.6
20260507034501 54 252 1.0 4.0 0.00 0.00 0.00 67 1020.5
20260507033057 55 311 0.0 5.0 0.00 0.00 0.00 69 1020.2
20260507031553 56 290 0.0 3.0 0.00 0.00 0.00 69 1020.1
20260507030048 57 299 0.0 3.0 0.00 0.00 0.00 69 1019.9
20260507024556 58 286 0.0 7.0 0.00 0.00 0.00 69 1019.8
20260507023042 59 301 1.0 5.0 0.00 0.00 0.00 69 1019.8
20260507021536 61 277 1.0 6.0 0.00 0.00 0.00 67 1019.8
20260507020036 62 346 1.0 5.0 0.00 0.00 0.00 65 1019.8
20260507014539 63 74 0.0 5.0 0.00 0.00 0.00 65 1019.8
20260507013026 64 285 2.0 6.0 0.00 0.00 0.00 64 1019.8
20260507011520 65 296 1.0 6.0 0.00 0.00 0.00 63 1019.8
20260507010014 65 311 3.0 8.0 0.00 0.00 0.00 63 1019.8
20260507004525 66 296 1.0 5.0 0.00 0.00 0.00 63 1019.7
20260507003005 67 295 2.0 7.0 0.00 0.00 0.00 61 1019.7
20260507001501 67 312 2.0 6.0 0.00 0.00 0.00 61 1019.6
20260507000057 68 289 3.0 7.0 0.00 0.00 0.00 60 1019.5
20260506234600 69 300 2.0 6.0 0.00 0.00 0.00 60 1019.4
20260506233047 70 300 2.0 6.0 0.00 0.00 0.00 58 1019.4
20260506231551 70 322 1.0 4.0 0.00 0.00 0.00 58 1019.4
20260506230052 69 230 1.0 8.0 0.00 0.00 0.00 59 1019.5
20260506224535 69 332 0.0 3.0 0.00 0.00 0.00 61 1019.6
20260506223044 69 263 0.0 4.0 0.00 0.00 0.00 58 1019.7
20260506221525 67 182 1.0 5.0 0.00 0.00 0.00 60 1019.9
20260506220024 68 182 2.0 6.0 0.00 0.00 0.00 59 1020.1
20260506214517 67 316 1.0 6.0 0.00 0.00 0.00 60 1019.9
20260506213014 66 218 1.0 4.0 0.00 0.00 0.00 61 1020.1
20260506211632 66 258 1.0 6.0 0.00 0.00 0.00 60 1020.1
20260506210002 64 55 0.0 4.0 0.00 0.00 0.00 64 1020.4
20260506204600 64 315 1.0 5.0 0.00 0.00 0.00 62 1020.5
20260506203054 63 306 1.0 7.0 0.00 0.00 0.00 63 1020.7
20260506201559 63 288 1.0 4.0 0.00 0.00 0.00 63 1020.6
20260506200044 63 215 1.0 5.0 0.00 0.00 0.00 62 1020.6
20260506194554 62 167 3.0 7.0 0.00 0.00 0.00 62 1020.7
20260506193039 61 287 1.0 6.0 0.00 0.00 0.00 62 1020.6
20260506191538 60 281 1.0 6.0 0.00 0.00 0.00 61 1020.8
20260506190026 59 205 1.0 6.0 0.00 0.00 0.00 60 1021.1
20260506184522 59 192 1.0 5.0 0.00 0.00 0.00 58 1021.0
20260506183028 57 169 0.0 5.0 0.00 0.00 0.00 53 1021.1
20260506181513 57 177 1.0 5.0 0.00 0.00 0.00 50 1020.9
20260506180012 56 183 1.0 3.0 0.00 0.00 0.00 49 1020.9
20260506174510 55 217 0.0 3.0 0.00 0.00 0.00 47 1021.1
20260506173109 55 217 1.0 4.0 0.00 0.00 0.00 46 1021.2
20260506171556 55 187 0.0 4.0 0.00 0.00 0.00 43 1020.9
20260506170109 54 209 0.0 3.0 0.00 0.00 0.00 40 1021.0
20260506164548 53 209 0.0 4.0 0.00 0.00 0.00 34 1021.0
20260506163054 53 207 0.0 1.0 0.00 0.00 0.00 30 1021.0
20260506161541 53 194 2.0 6.0 0.00 0.00 0.00 28 1020.7
20260506160039 52 238 0.0 3.0 0.00 0.00 0.00 28 1020.5
20260506154533 52 278 1.0 6.0 0.00 0.00 0.00 30 1020.8
20260506153025 52 197 0.0 2.0 0.00 0.00 0.00 32 1021.0
20260506151521 52 22 0.0 2.0 0.00 0.00 0.00 36 1021.1
20260506150017 52 269 0.0 3.0 0.00 0.00 0.00 31 1021.1
20260506144512 52 259 0.0 2.0 0.00 0.00 0.00 28 1020.6
20260506143019 51 196 0.0 2.0 0.00 0.00 0.00 20 1020.0
20260506141507 50 292 0.0 1.0 0.00 0.00 0.00 14 1019.9
20260506140104 50 292 0.0 0.0 0.00 0.00 0.00 11 1019.9
20260506134556 50 292 0.0 0.0 0.00 0.00 0.00 14 1020.0
20260506133052 50 292 0.0 1.0 0.00 0.00 0.00 12 1020.0
20260506131546 50 292 0.0 0.0 0.00 0.00 0.00 12 1019.9
20260506130042 51 292 0.0 2.0 0.00 0.00 0.00 10 1019.7
20260506124538 51 292 0.0 1.0 0.00 0.00 0.00 9 1019.7
20260506123034 51 292 0.0 0.0 0.00 0.00 0.00 10 1019.8
20260506121529 51 292 0.0 3.0 0.00 0.00 0.00 7 1019.6
20260506120038 51 292 1.0 3.0 0.00 0.00 0.00 2 1019.6
20260506114520 50 285 0.0 2.0 0.00 0.00 0.00 100 1019.3
20260506113026 50 285 0.0 2.0 0.00 0.00 0.00 100 1019.1
20260506111510 49 285 0.0 3.0 0.00 0.00 0.00 100 1018.9
20260506110009 49 285 0.0 0.0 0.00 0.00 0.00 1 1018.7
20260506104502 48 285 0.0 0.0 0.00 0.00 0.00 8 1018.4
20260506103122 48 285 0.0 0.0 0.00 0.00 0.00 14 1018.3
20260506101555 49 285 0.0 0.0 0.00 0.00 0.00 18 1018.1
20260506100053 49 285 0.0 0.0 0.00 0.00 0.00 22 1018.0
20260506094550 50 285 0.0 0.0 0.00 0.00 0.00 25 1017.9
20260506093046 50 285 0.0 0.0 0.00 0.00 0.00 27 1017.8
20260506091543 51 285 0.0 0.0 0.00 0.00 0.00 31 1017.8
20260506090048 51 285 0.0 0.0 0.00 0.00 0.00 35 1017.6
20260506084548 52 285 0.0 0.0 0.00 0.00 0.00 39 1017.6
20260506083034 53 285 0.0 1.0 0.00 0.00 0.00 43 1017.4
20260506081537 54 285 0.0 0.0 0.00 0.00 0.00 47 1017.4
20260506073022 56 285 0.0 0.0 0.00 0.00 0.00 58 1017.3
20260506071519 56 285 0.0 0.0 0.00 0.00 0.00 58 1017.2